TimeEDT,TemperatureF,Dew PointF,Humidity,Sea Level PressureIn,VisibilityMPH,Wind Direction,Wind SpeedMPH,Gust SpeedMPH,PrecipitationIn,Events,Conditions,WindDirDegrees,DateUTC
12:00 AM,49.3,48.2,96,30.07,-9999.0,East,9.2,-,N/A,,Unknown,80,2012-10-24 04:00:00
1:00 AM,49.5,48.6,97,30.06,-9999.0,East,8.1,-,N/A,,Unknown,80,2012-10-24 05:00:00
2:00 AM,50,49,94,30.06,,East,6.9,,,,,80,2012-10-24 06:00:00
2:00 AM,49.8,48.7,96,30.06,-9999.0,East,6.9,-,N/A,,Unknown,80,2012-10-24 06:00:00
3:00 AM,50.0,48.7,95,30.06,-9999.0,East,6.9,-,N/A,,Unknown,80,2012-10-24 07:00:00
4:00 AM,50.2,48.9,95,30.06,-9999.0,East,5.8,-,N/A,,Unknown,80,2012-10-24 08:00:00
5:00 AM,50.0,48.7,95,30.06,-9999.0,ENE,5.8,-,N/A,,Unknown,60,2012-10-24 09:00:00
6:00 AM,49.3,47.8,95,30.06,-9999.0,NE,4.6,-,N/A,,Unknown,50,2012-10-24 10:00:00
7:00 AM,50.0,48.4,94,30.07,-9999.0,ENE,3.5,-,N/A,,Unknown,70,2012-10-24 11:00:00
8:00 AM,50.0,48.6,95,30.08,-9999.0,East,4.6,-,N/A,,Unknown,80,2012-10-24 12:00:00
9:00 AM,50.4,49.1,95,30.09,-9999.0,ENE,3.5,-,0.01,,Unknown,70,2012-10-24 13:00:00
10:00 AM,50.4,49.1,95,30.09,-9999.0,ENE,3.5,-,N/A,,Unknown,60,2012-10-24 14:00:00
11:00 AM,51.1,49.1,93,30.07,-9999.0,ENE,3.5,-,N/A,,Unknown,60,2012-10-24 15:00:00
12:00 PM,50.9,48.6,92,30.08,-9999.0,NNW,4.6,-,N/A,,Unknown,340,2012-10-24 16:00:00
2:00 PM,50,47,88,30.06,,NNW,1.2,,,,,330,2012-10-24 18:00:00
2:00 PM,49.6,47.5,92,30.06,-9999.0,NNW,1.2,-,N/A,,Unknown,330,2012-10-24 18:00:00
3:00 PM,50.4,48.0,92,30.05,-9999.0,NNW,3.5,-,N/A,,Unknown,330,2012-10-24 19:00:00
4:00 PM,50.4,48.6,94,30.05,-9999.0,NNW,4.6,-,N/A,,Unknown,330,2012-10-24 20:00:00
5:00 PM,48.9,47.5,95,30.05,-9999.0,NW,6.9,-,N/A,,Unknown,320,2012-10-24 21:00:00
6:00 PM,48.4,46.9,95,30.06,-9999.0,NW,3.5,-,N/A,,Unknown,320,2012-10-24 22:00:00
7:00 PM,48.2,46.8,95,30.07,-9999.0,WNW,3.5,-,N/A,,Unknown,300,2012-10-24 23:00:00
8:00 PM,48.2,47.1,96,30.07,-9999.0,WNW,3.5,-,N/A,,Unknown,290,2012-10-25 00:00:00
9:00 PM,48.4,47.5,97,30.08,-9999.0,WNW,3.5,-,N/A,,Unknown,290,2012-10-25 01:00:00
10:00 PM,48.6,47.8,97,30.08,-9999.0,WNW,3.5,-,N/A,,Unknown,290,2012-10-25 02:00:00
11:00 PM,48.4,47.7,97,30.08,-9999.0,WNW,5.8,-,N/A,,Unknown,300,2012-10-25 03:00:00